{"data":{"norad_id":69255,"intl_designator":"2026-117T","name":"STARLINK-37378","alt_names":[],"object_type":"PAYLOAD","status":"ACTIVE","operator":null,"country":"US","launch_date":"2026-05-29","launch_site_code":"AFETR","launch_vehicle":null,"mission":null,"orbit_class":"UNKNOWN","rcs_meters":null,"size_class":null,"mass_kg":null,"dimensions":null,"purposes":["comms"],"wikipedia_slug":null,"has_3d_model":false,"image_url":null,"decayed_at":null,"tle_current":{"epoch":"2026-09-19T23:52:53.355072Z","epoch_age_seconds":70586,"freshness":"FRESH","line1":"1 69255U 26117T   26262.99506198  .00021701  00000+0  65110-3 0  9995","line2":"2 69255  53.1574 155.7926 0002419  97.7202 262.4075 15.34421069 17595","mean_motion":15.34421069,"eccentricity":0.0002419,"inclination_deg":53.1574,"raan_deg":155.7926,"arg_perigee_deg":97.7202,"mean_anomaly_deg":262.4075,"bstar":0.0006511,"rev_number":1759,"period_min":93.846469466068,"perigee_km":460.98583530942,"apogee_km":464.29540352169,"semimajor_km":6840.7776194156,"source":"CELESTRAK","updated_at":"2026-09-20T09:00:44.151000Z"}}}